Preview of NWS' New Version of Forecast
This preview is not operational and should not be used for support decisions.

Regional Weather Roundup (RWR)

Issued by National Weather Service (NWS)

                            
000
ASUS45 KABQ 172010
RWRNM 
NEW MEXICO REGIONAL WEATHER ROUNDUP
NATIONAL WEATHER SERVICE ALBUQUERQUE NM
200 PM MDT WED APR 17 2019

NOTE: "FAIR" MEANS FEW OR NO CLOUDS BELOW 12,000 FEET AGL WITH NO
       SIGNIFICANT WEATHER OR OBSTRUCTIONS TO VISION.

      THIS PRODUCT IS RELEASED AS TWO VERSIONS.  ONE VERSION NEAR
      THE TOP OF THE HOUR CONTAINING PRELIMINARY DATA FROM ALBUQUERQUE
      AND OTHER STATIONS.  A FINAL VERSION WITH ADDITIONAL DATA IS 
      ISSUED ABOUT 10 MINUTES AFTER THE HOUR.
 
NMZ501-503-504-510>518-172100-
NORTHWEST PLATEAU/NORTHCENTRAL MOUNTAINS
  
CITY           SKY/WX    TMP DP  RH WIND       PRES   REMARKS
FARMINGTON     PTSUNNY   65  30  27 W13G21    29.89F                  
LOS ALAMOS       N/A     56  29  36 NE17      29.90R                  
SANTA FE       TSTM      51  38  60 E10G20    29.88R                  
TAOS           LGT RAIN  46  35  65 SE26G36   29.91R                  
ANGEL FIRE     RAIN      33  32  96 W5        30.01F WCI  29          

$$
NMZ402-403-502-505>509-172100-
WESTCENTRAL MOUNTAINS/SOUTHWEST MOUNTAINS
  
CITY           SKY/WX    TMP DP  RH WIND       PRES   REMARKS
GALLUP         CLOUDY    51  39  63 NW13      30.01R                  
GRANTS         CLOUDY    51  42  70 NW18G29   29.98S                  
SILVER CITY    PTSUNNY   56  37  49 W22G32    29.98F                  

$$
NMZ407-409-411-412-172100-
SOUTHERN DESERTS
  
CITY           SKY/WX    TMP DP  RH WIND       PRES   REMARKS
DEMING         FAIR      60  40  47 W24G36    29.97F                  
LAS CRUCES     FAIR      64  35  34 W36       29.94R                  
HOLLOMAN AFB   CLOUDY    63  36  37 SW10G22   29.89F                  
ALAMOGORDO     PTSUNNY   57  39  51 SE17G23   29.89F                  
T OR C         CLOUDY    56  43  61 NW16G24   29.91R                  

$$
NMZ519>523-172100-
CENTRAL VALLEYS/CENTRAL HIGHLANDS
  
CITY           SKY/WX    TMP DP  RH WIND       PRES   REMARKS
ALBUQUERQUE    CLOUDY    50  44  80 SE18      29.89S                  
DOUBLE EAGLE   TSTM      55  41  58 W9        29.87F                  
MORIARTY ARPT  CLOUDY    55  38  51 NW9G21    29.86R                  
CLINES CORNERS FAIR      56  32  40 SE16G31   29.87R                  
BELEN          CLOUDY    56  41  57 NW9       29.88F                  
SOCORRO        CLOUDY    56  41  56 NW15G22   29.89F                  

$$
NMZ524>526-539-540-172100-
SOUTHCENTRAL MOUNTAINS
  
CITY           SKY/WX    TMP DP  RH WIND       PRES   REMARKS
RUIDOSO        FAIR      46  39  76 NW21G28   29.90S                  

$$
NMZ527>531-172100-
NORTHEAST HIGHLANDS/NORTHEAST PLAINS
  
CITY           SKY/WX    TMP DP  RH WIND       PRES   REMARKS
LAS VEGAS      PTSUNNY   56  36  47 NE24G31   29.89S                  
RATON          CLOUDY    56  35  45 N15       29.88F                  
CLAYTON        CLOUDY    62  36  37 NE25G33   29.84R                  

$$
NMZ532>537-172100-
EASTCENTRAL PLAINS
  
CITY           SKY/WX    TMP DP  RH WIND       PRES   REMARKS
SANTA ROSA     DRIZZLE   63  36  36 NE26G33   29.79S                  
TUCUMCARI      LGT RAIN  58  47  66 NW22      29.77R                  
CANNON AFB     DRIZZLE   65  38  37 N17       29.76F                  
CLOVIS AIRPORT LGT RAIN  65  36  34 N16       29.75F                  

$$
NMZ028-029-538-172100-
SOUTHEAST PLAINS
  
CITY           SKY/WX    TMP DP  RH WIND       PRES   REMARKS
ROSWELL        CLOUDY    66  36  32 N15       29.76S                  
ARTESIA        PTSUNNY   70  37  30 SW31G43   29.77S                  
CARLSBAD       FAIR      72  33  24 SW31G38   29.78F                  
HOBBS          MOSUNNY   68  28  22 SW25G45   29.81S                  


$$